Stanley, ID

8:22 PM MDT on May 27, 2017 (GMT -0600)
Stanley

Weather History for KSNT - October, 2012

Change the Weather History Date:

Saturday, October 6, 2012

  Actual Average Record
Temperature  
Mean Temperature 33 °F 42 °F  
Max Temperature 58 °F 59 °F 76 °F (1988)
Min Temperature 7 °F 25 °F 7 °F (2012)
Degree Days  
Heating Degree Days 32 23  
Month to date heating degree days 157 133  
Since 1 July heating degree days 905 1174  
Cooling Degree Days 0 0  
Month to date cooling degree days 0 0  
Year to date cooling degree days 3 3  
Moisture  
Dew Point 1 °F    
Average Humidity 40    
Maximum Humidity 73    
Minimum Humidity 6    
Precipitation  
Precipitation 0.00 in 0.02 in 0.41 in (2006)
Month to date precipitation 0.00 0.14  
Year to date precipitation 15.64 12.35  
Sea Level Pressure  
Sea Level Pressure 30.24 in    
Wind  
Wind Speed 2 mph (WNW)    
Max Wind Speed 14 mph    
Max Gust Speed 21 mph    
T = Trace of Precipitation, MM = Missing Value Source: NWS Daily Summary

Daily Weather History Graph

Daily Weather History Graph

Search for Another Location

Airport or City:

Trip Planner

Search our weather history database for the weather conditions in past years. The results will help you decide how hot, cold, wet, or windy it might be!

Date:

Astronomy

Oct. 06, 2012 Rise Set
Actual Time 7:44 AM MDT 7:10 PM MDT
Civil Twilight 7:15 AM MDT 7:39 PM MDT
Nautical Twilight 6:41 AM MDT 8:12 PM MDT
Astronomical Twilight 6:07 AM MDT 8:46 PM MDT
Moon 11:20 PM MDT (10/6) 1:51 PM MDT (10/6)
Length of Visible Light 12h 24m
Length of Day
11h 26m
Waning Gibbous, 65% of the Moon is Illuminated
Oct 6
Waning Gibbous
Oct 8
Last Quarter
Oct 15
New
Oct 21
First Quarter
Oct 29
Full

Hourly Weather History & Observations

Time (MDT) Temp. Windchill Dew Point Humidity Pressure Visibility Wind Dir Wind Speed Gust Speed Precip Events Conditions
12:51 AM 17.1 °F - 1.9 °F 52% 30.23 in - Calm Calm - N/A   Unknown
1:51 AM 16.0 °F - 1.9 °F 54% 30.23 in - Calm Calm - N/A   Unknown
2:51 AM 14.0 °F - 1.0 °F 56% 30.24 in - Calm Calm - N/A   Unknown
3:51 AM 10.9 °F - 1.0 °F 64% 30.25 in - Calm Calm - N/A   Unknown
4:51 AM 10.9 °F 2.9 °F 1.9 °F 67% 30.25 in - South 4.6 mph - N/A   Unknown
5:51 AM 9.0 °F - -0.0 °F 67% 30.27 in - Calm Calm - N/A   Unknown
6:51 AM 10.0 °F - 1.9 °F 70% 30.31 in - Calm Calm - N/A   Unknown
7:51 AM 9.0 °F - 1.0 °F 70% 30.37 in - Calm Calm - N/A   Unknown
8:51 AM 14.0 °F - 6.1 °F 71% 30.36 in - Calm Calm - N/A   Unknown
9:51 AM 23.0 °F - 6.1 °F 48% 30.33 in - Calm Calm - N/A   Unknown
10:51 AM 28.9 °F - 8.1 °F 41% 30.31 in - Calm Calm - N/A   Unknown
11:51 AM 37.9 °F 33.5 °F 9.0 °F 30% 30.26 in - North 5.8 mph - N/A   Unknown
12:51 PM 45.0 °F 43.5 °F 3.9 °F 18% 30.22 in - NW 3.5 mph - N/A   Unknown
1:51 PM 51.1 °F - -2.0 °F 11% 30.17 in - Variable 6.9 mph - N/A   Unknown
2:51 PM 54.0 °F - -8.0 °F 8% 30.14 in - Variable 5.8 mph - N/A   Unknown
3:51 PM 54.0 °F - -15.0 °F 5% 30.13 in - Calm Calm - N/A   Unknown
4:51 PM 57.0 °F - -8.0 °F 7% 30.11 in - NW 9.2 mph - N/A   Unknown
6:51 PM 46.9 °F - -0.9 °F 14% 30.17 in - WNW 5.8 mph - N/A   Unknown
7:51 PM 37.0 °F - 1.9 °F 23% 30.24 in - Calm Calm - N/A   Unknown
8:51 PM 32.0 °F - 3.9 °F 31% 30.26 in - Calm Calm - N/A   Unknown
9:51 PM 28.0 °F - 3.0 °F 34% 30.23 in - Calm Calm - N/A   Unknown
10:51 PM 25.0 °F - 3.0 °F 39% 30.25 in - Calm Calm - N/A   Unknown
11:51 PM 21.9 °F 15.7 °F 1.0 °F 40% 30.23 in - SSE 4.6 mph - N/A   Unknown